Volver al catálogo

STARLINK-30196

ActivoComunicacionesVLEO
NORAD 57448·PAYLOAD·🇺🇸 United States

Lanzado Jul 24, 2023 desde Cape Canaveral Space Force Station

Loading…

Próximos Pases (próximas 24 horas)

TLE

ActualizadoSource: CelesTrak SupGP

Época: Sep 14, 2026, 21:59 UTC

1 57448C 23105U   26257.91645833  .00025561  00000+0  92596-3 0  2579
2 57448  43.0022 274.4330 0002012 264.8212  94.5087 15.27559609    17

Sigue STARLINK-30196 en tiempo real con AllMySat

Download on the App Store